Погода в Творожкове

Россия / Псковская область     58°21′30″N   28°40′08″E
темп.,
°C
ветер,
м/с
пор.,
м/с
влажн.,
%
обл.,
%
осадки,
мм/ч
давл.,
гПа
погр.,
м
3 марта, ср
ср300:000зсз4119289 0.0 1022513
03:00−1зсз4109457 0.0 1022382
06:00−1з5119366 0.0 1020490
09:000зсз5118782 0.0 1020796
12:00+2зсз5107157 0.0 1018989
15:00+4з6127050 0.0 10151238
18:00+3з5138396 0.0 1011907
21:00+2з6148783 0.0 1009762
4 марта, чт
чт400:00+2зсз61289100 0.0 1007886
03:00+1сз4993100 0.2 1007734
06:00−2ссз278998 0.1 1005401
09:00−2сз358599 0.1 1005365
12:000сз356542 0.0 1004818
15:000сз467152 0.2 10051017
18:00−3ссз588098 0.3 1005932
21:00−4ссз597391 0.4 1007968
5 марта, пт
пт500:00−4ссз476960 0.0 10081097
03:00−5сз366930 0.0 1009780
06:00−6сз377123 0.0 1009734
09:00−6ссз367150 0.0 1011877
12:00−5ссз355787 0.1 10121240
15:00−4ссз356088 0.1 10141210
18:00−5ссз3567100 0.1 1015995
21:00−6ссз367697 0.2 1017702
6 марта, сб
сб600:00−7сз258227 0.0 1019378
03:00−7зсз369038 0.0 1019415
06:00−8зсз379053 0.0 1019358
09:00−7з387926 0.0 1019446
12:00−4зюз5106051 0.0 1016843
15:00−4юз7138275 0.1 10121083
18:00−3зюз91889100 1.6 10061461
21:00−2зюз91892100 3.9 10021282
7 марта, вс
вс700:00−1зюз91893100 2.3 9971154
03:00−1з91894100 4.6 9941477
06:00−6з3126999 1.7 994974
09:00−6зсз9196899 2.1 9932663
12:00−4з81778100 0.6 9921850
15:00−5сз91568100 1.9 9931463
18:00−6зсз71391100 0.6 9961220
21:00−8ссз61285100 1.0 9991216